User: anonymous   Login
Location: Ash Swamp
(41.5170°N, 74.6157°W)
Time: 08:58:23
(UTC+00:00)
Language:

SPOT 5 - Orbit

View from above orbital plane
View from above orbital plane
View from above satellite
View from above satellite

Ground track
Ground track

The orbit data is extracted from the following two-line orbital elements,

1 27421U 02021A   20266.15825554  .00000009  00000-0  13802-4 0  9999
2 27421  98.2641 335.5160 0133771 268.4031  90.1846 14.52050276958784
Epoch (UTC): 22 September 2020 03:47:53
Eccentricity: 0.0133771
inclination: 98.2641°
perigee height: 624 km
apogee height: 814 km
right ascension of ascending node: 335.5160°
argument of perigee: 268.4031°
revolutions per day: 14.52050276
mean anomaly at epoch: 90.1846°
orbit number at epoch: 95878

The dashed part of the orbit path shows where the satellite is in the earth's shadow,  

DLR